DW3857 Weather Reports


time (UTC)temp
C
wind
direction
speed
KPH
gust
KPH
rain 1hr
cm
rain 24hr
cm
rain mn
cm
humidity
%
barometer
mb
20260503021543 8 0.0 0.0 0.00 0.00 0.00 76 1016.5
20260503020042 8 0.0 0.0 0.00 0.00 0.00 76 1016.4
20260503014542 8 0.0 0.0 0.00 0.00 0.00 79 1016.3
20260503013042 8 0.0 0.0 0.00 0.00 0.00 75 1016.3
20260503011537 8 0.0 0.0 0.00 0.00 0.00 74 1016.5
20260503010038 8 0.0 0.0 0.00 0.00 0.00 74 1016.5
20260503004537 8 0.0 0.0 0.00 0.00 0.00 73 1016.5
20260503003043 9 0.0 0.0 0.00 0.00 0.00 73 1016.5
20260503001540 9 0.0 0.0 0.00 0.00 0.00 72 1016.6
20260503000034 9 0.0 0.0 0.00 0.00 0.00 71 1016.7
20260502234538 10 0.0 0.0 0.00 0.00 0.00 71 1016.8
20260502233037 10 0.0 0.0 0.00 0.00 0.00 70 1016.9
20260502231524 10 0.0 0.0 0.00 0.00 0.00 69 1017.1
20260502230031 10 0.0 0.0 0.00 0.00 0.00 68 1017.2
20260502224519 10 0.0 0.0 0.00 0.00 0.00 67 1017.2
20260502223024 11 0.0 0.0 0.00 0.00 0.00 66 1017.3
20260502221515 11 0.0 0.0 0.00 0.00 0.00 65 1017.4
20260502220017 11 0.0 0.0 0.00 0.00 0.00 64 1017.3
20260502214510 12 0.0 0.0 0.00 0.00 0.00 63 1017.4
20260502213009 12 0.0 0.0 0.00 0.00 0.00 61 1017.4
20260502211509 12 0.0 0.0 0.00 0.00 0.00 61 1017.5
20260502210009 12 0.0 0.0 0.00 0.00 0.00 60 1017.6
20260502204507 13 0.0 0.0 0.00 0.00 0.00 59 1017.8
20260502203007 13 0.0 0.0 0.00 0.00 0.00 58 1017.8
20260502201507 14 0.0 0.0 0.00 0.00 0.00 57 1017.9
20260502200006 14 0.0 0.0 0.00 0.00 0.00 55 1017.9
20260502194514 15 0.0 0.0 0.00 0.00 0.00 54 1017.9
20260502193005 15 0.0 0.0 0.00 0.00 0.00 52 1018.1
20260502191505 16 0.0 0.0 0.00 0.00 0.00 50 1018.0
20260502190005 17 0.0 0.0 0.00 0.00 0.00 46 1018.0
20260502184504 18 0.0 0.0 0.00 0.00 0.00 43 1017.9
20260502183004 19 0.0 0.0 0.00 0.00 0.00 38 1017.7
20260502181509 20 0.0 0.0 0.00 0.00 0.00 35 1017.6
20260502163103 25 0.0 0.0 0.00 0.00 0.00 27 1017.7
20260502161556 25 0.0 0.0 0.00 0.00 0.00 26 1017.9
20260502151601 26 0.0 0.0 0.00 0.00 0.00 25 1018.5
20260502123038 25 0.0 0.0 0.00 0.00 0.00 28 1020.5
20260502121531 24 0.0 0.0 0.00 0.00 0.00 30 1020.6
20260502114525 24 0.0 0.0 0.00 0.00 0.00 28 1021.0
20260502113023 23 0.0 0.0 0.00 0.00 0.00 29 1021.3
20260502111521 23 0.0 0.0 0.00 0.00 0.00 30 1021.4
20260502110021 23 0.0 0.0 0.00 0.00 0.00 29 1021.7
20260502104516 23 0.0 0.0 0.00 0.00 0.00 29 1021.8
20260502103014 23 0.0 0.0 0.00 0.00 0.00 31 1022.0
20260502101511 22 0.0 0.0 0.00 0.00 0.00 32 1022.1
20260502091503 21 0.0 0.0 0.00 0.00 0.00 36 1022.8
20260502070046 16 0.0 0.0 0.00 0.00 0.00 50 1023.5
20260502064537 16 0.0 0.0 0.00 0.00 0.00 52 1023.5
20260502063035 16 0.0 0.0 0.00 0.00 0.00 51 1023.5
20260502061537 15 0.0 0.0 0.00 0.00 0.00 52 1023.6
20260502060029 15 0.0 0.0 0.00 0.00 0.00 53 1023.4
20260502054526 14 0.0 0.0 0.00 0.00 0.00 54 1023.4
20260502053023 13 0.0 0.0 0.00 0.00 0.00 55 1023.4
20260502051525 13 0.0 0.0 0.00 0.00 0.00 57 1023.5
20260502050022 12 0.0 0.0 0.00 0.00 0.00 59 1023.4
20260502044521 11 0.0 0.0 0.00 0.00 0.00 61 1023.4
20260502043023 11 0.0 0.0 0.00 0.00 0.00 61 1023.3
20260502041526 11 0.0 0.0 0.00 0.00 0.00 60 1023.3
20260502040019 11 0.0 0.0 0.00 0.00 0.00 60 1023.3
20260502034516 11 0.0 0.0 0.00 0.00 0.00 59 1023.2
20260502033023 12 0.0 0.0 0.00 0.00 0.00 57 1023.1
20260502031515 12 0.0 0.0 0.00 0.00 0.00 57 1023.0
20260502030013 12 0.0 0.0 0.00 0.00 0.00 57 1023.0
20260502024511 12 0.0 0.0 0.00 0.00 0.00 55 1023.1
20260502023011 12 0.0 0.0 0.00 0.00 0.00 55 1023.0